Find Starlink 30316

NORAD ID: 57673 Int'l Des: 2023-124 Owner: SPXS Country: US Constellation: starlink operational
LEOCIRCULAR

現在のビュー

3D地球を読み込み中...

About Starlink 30316

Starlink 30316 (NORAD 57673) is a starlink constellation satellite (v2 mini) launched Aug 22, 2023 by SPXS of US. It operates in LEO, CIRCULAR orbit with a mass of 730.00 kg.

Starlink 30316について

説明を読み込み中...

次回通過

Passes for default location (London). Set your location on the main map for personalized predictions.

高度履歴

Loading altitude history...

軌道要素

1 57673U 23124L 26171.25002315 .00101475 00000-0 29824-2 0 9990
2 57673 53.1598 90.6207 0001281 111.2666 5.0839 15.34311564 5867
Epoch: Jun 20, 2026 • Age: 9 hours

現在のステータス

高度 482.1 km
速度 7.62 km/s
衛星直下点 -53.12°S, 120.54°W
打ち上げ日 Aug 22, 2023
運用期間 2.8 years
タイプ internet

技術仕様

分類 Payload
質量 730.00 kg
乾燥質量 700.00 kg
総質量 730.00 kg
長さ 0.30 m
直径 4.10 m
スパン 29.00 m
形状 Box + pan
製造者 SPXS
バスタイプ Starlink V2M
フェーズステータス In Orbit
所有者/国 SPXS/US

Most Searched